DW6725 Weather Reports


Display with metric or nautical units.
time (UTC)temp
F
wind
direction
speed
MPH
gust
MPH
rain 1hr
in
rain 24hr
in
rain mn
in
humidity
%
barometer
mb
20260905224005 72 319 2.0 8.0 0.00 0.00 0.00 67 1014.3
20260905223004 72 21 3.0 9.0 0.00 0.00 0.00 66 1014.4
20260905222005 72 17 3.0 10.0 0.00 0.00 0.00 65 1014.3
20260905221004 73 327 1.0 7.0 0.00 0.00 0.00 64 1014.1
20260905220005 73 355 3.0 7.0 0.00 0.00 0.00 64 1014.0
20260905215005 73 7 3.0 8.0 0.00 0.00 0.00 63 1013.9
20260905214005 74 335 3.0 9.0 0.00 0.00 0.00 63 1013.7
20260905213004 74 330 3.0 10.0 0.00 0.00 0.00 62 1013.6
20260905212003 74 359 3.0 10.0 0.00 0.00 0.00 63 1013.5
20260905211004 74 341 2.0 7.0 0.00 0.00 0.00 64 1013.4
20260905210005 74 351 4.0 12.0 0.00 0.00 0.00 64 1013.4
20260905205005 74 342 3.0 11.0 0.00 0.00 0.00 64 1013.4
20260905204005 73 304 4.0 12.0 0.00 0.00 0.00 65 1013.5
20260905203004 73 309 3.0 11.0 0.00 0.00 0.00 63 1013.5
20260905202004 74 20 4.0 10.0 0.00 0.00 0.00 62 1013.4
20260905201214 75 42 3.0 10.0 0.00 0.00 0.00 61 1013.4
20260905200214 74 350 4.0 11.0 0.00 0.00 0.00 63 1013.4
20260905195005 74 287 3.0 11.0 0.00 0.00 0.00 61 1013.4
20260905194008 74 333 4.0 12.0 0.00 0.00 0.00 64 1013.4
20260905193215 73 360 4.0 10.0 0.00 0.00 0.00 63 1013.2
20260905192004 74 312 4.0 16.0 0.00 0.00 0.00 61 1013.3
20260905191003 76 290 3.0 13.0 0.00 0.00 0.00 60 1013.3
20260905190004 74 335 4.0 8.0 0.00 0.00 0.00 61 1013.3
20260905185003 74 4 3.0 10.0 0.00 0.00 0.00 62 1013.2
20260905184215 75 358 4.0 10.0 0.00 0.00 0.00 61 1013.3
20260905183005 74 294 3.0 7.0 0.00 0.00 0.00 62 1013.1
20260905182004 73 1 3.0 9.0 0.00 0.00 0.00 62 1013.3
20260905181003 74 354 3.0 10.0 0.00 0.00 0.00 62 1013.4
20260905180003 73 27 3.0 8.0 0.00 0.00 0.00 61 1013.3
20260905175005 73 5 2.0 7.0 0.00 0.00 0.00 63 1013.2
20260905174003 73 348 3.0 11.0 0.00 0.00 0.00 63 1013.4
20260905173003 73 12 3.0 11.0 0.00 0.00 0.00 64 1013.2
20260905172005 72 26 3.0 6.0 0.00 0.00 0.00 63 1013.3
20260905171004 73 305 2.0 7.0 0.00 0.00 0.00 63 1013.6
20260905170005 72 23 2.0 8.0 0.00 0.00 0.00 64 1013.6
20260905165004 72 326 3.0 12.0 0.00 0.00 0.00 63 1013.6
20260905164005 72 40 3.0 10.0 0.00 0.00 0.00 61 1013.6
20260905163005 71 342 3.0 9.0 0.00 0.00 0.00 65 1013.5
20260905162005 72 14 2.0 8.0 0.00 0.00 0.00 65 1013.6
20260905161006 71 232 3.0 8.0 0.00 0.00 0.00 65 1013.7
20260905160004 71 357 2.0 7.0 0.00 0.00 0.00 69 1013.6
20260905155005 71 17 2.0 6.0 0.00 0.00 0.00 70 1013.8
20260905154214 71 23 2.0 6.0 0.00 0.00 0.00 69 1013.6
20260905153004 71 337 2.0 10.0 0.00 0.00 0.00 71 1013.8
20260905152216 70 304 3.0 10.0 0.00 0.00 0.00 72 1013.8
20260905151005 69 19 2.0 9.0 0.00 0.00 0.00 75 1014.0
20260905150004 69 9 2.0 10.0 0.00 0.00 0.00 74 1014.0
20260905145003 70 343 3.0 10.0 0.00 0.00 0.00 76 1014.0
20260905144005 69 34 2.0 7.0 0.00 0.00 0.00 76 1013.9
20260905143005 69 323 2.0 6.0 0.00 0.00 0.00 77 1013.8
20260905142213 69 352 3.0 7.0 0.00 0.00 0.00 78 1013.7
20260905141003 69 45 2.0 5.0 0.00 0.00 0.00 79 1013.9
20260905140004 68 34 2.0 6.0 0.00 0.00 0.00 80 1013.8
20260905135003 68 20 2.0 7.0 0.00 0.00 0.00 80 1013.9
20260905134003 69 24 2.0 5.0 0.00 0.00 0.00 79 1013.9
20260905133003 69 267 3.0 9.0 0.00 0.00 0.00 78 1013.7
20260905132003 70 1 2.0 8.0 0.00 0.00 0.00 78 1013.8
20260905131003 68 346 2.0 8.0 0.00 0.00 0.00 84 1013.8
20260905130004 67 320 1.0 5.0 0.00 0.00 0.00 86 1013.9
20260905125213 67 319 1.0 5.0 0.00 0.00 0.00 87 1013.9
20260905124004 65 286 1.0 4.0 0.00 0.00 0.00 90 1014.1
20260905123003 64 298 1.0 5.0 0.00 0.00 0.00 90 1014.0
20260905122003 64 295 1.0 3.0 0.00 0.00 0.00 90 1014.1
20260905121006 64 237 0.0 3.0 0.00 0.00 0.00 91 1013.9
20260905120003 63 267 1.0 5.0 0.00 0.00 0.00 92 1013.8
20260905115003 63 225 1.0 4.0 0.00 0.00 0.00 93 1013.8
20260905114004 63 219 1.0 4.0 0.00 0.00 0.00 93 1013.5
20260905113003 62 211 1.0 3.0 0.00 0.00 0.00 94 1013.5
20260905112004 62 210 1.0 4.0 0.00 0.00 0.00 95 1013.5
20260905111214 62 202 0.0 5.0 0.00 0.00 0.00 95 1013.5
20260905110003 62 197 0.0 3.0 0.00 0.00 0.00 96 1013.3
20260905105004 61 0 0.0 0.0 0.00 0.00 0.00 96 1013.1
20260905104008 60 0 0.0 0.0 0.00 0.00 0.00 96 1012.9
20260905103005 60 0 0.0 0.0 0.00 0.00 0.00 96 1012.8
20260905102004 60 0 0.0 0.0 0.00 0.00 0.00 95 1012.7
20260905101005 60 0 0.0 0.0 0.00 0.00 0.00 95 1012.8
20260905100214 60 0 0.0 0.0 0.00 0.00 0.00 95 1012.8
20260905095005 60 0 0.0 0.0 0.00 0.00 0.00 95 1012.7
20260905094005 60 0 0.0 0.0 0.00 0.00 0.00 95 1012.7
20260905093004 61 135 0.0 2.0 0.00 0.00 0.00 94 1012.6
20260905092003 61 0 0.0 0.0 0.00 0.00 0.00 94 1012.7
20260905091004 61 180 0.0 2.0 0.00 0.00 0.00 94 1012.8
20260905090005 61 166 1.0 2.0 0.00 0.00 0.00 93 1012.9
20260905085004 61 135 0.0 2.0 0.00 0.00 0.00 93 1012.9
20260905084004 62 0 0.0 0.0 0.00 0.00 0.00 93 1012.8
20260905083213 62 0 0.0 0.0 0.00 0.00 0.00 92 1012.8
20260905082003 62 0 0.0 0.0 0.00 0.00 0.00 92 1012.8
20260905081005 62 0 0.0 0.0 0.00 0.00 0.00 91 1013.0
20260905080004 62 0 0.0 0.0 0.00 0.00 0.00 91 1013.0
20260905075003 63 194 0.0 2.0 0.00 0.00 0.00 90 1012.9
20260905074005 63 180 0.0 3.0 0.00 0.00 0.00 89 1012.9
20260905073004 63 222 0.0 2.0 0.00 0.00 0.00 88 1013.0
20260905072003 63 198 0.0 2.0 0.00 0.00 0.00 88 1013.0
20260905071215 64 204 0.0 3.0 0.00 0.00 0.00 87 1013.1
20260905070004 64 205 1.0 2.0 0.00 0.00 0.00 87 1013.2
20260905065213 64 205 1.0 3.0 0.00 0.00 0.00 88 1013.2
20260905064003 65 201 0.0 2.0 0.00 0.00 0.00 87 1013.2
20260905063003 65 180 0.0 2.0 0.00 0.00 0.00 87 1013.1
20260905062006 66 0 0.0 1.0 0.00 0.00 0.00 87 1013.2
20260905061003 66 0 0.0 1.0 0.00 0.00 0.00 86 1013.2
20260905060003 66 227 0.0 2.0 0.00 0.00 0.00 86 1013.2
20260905055004 66 216 0.0 2.0 0.00 0.00 0.00 86 1013.2
20260905054003 67 208 0.0 2.0 0.00 0.00 0.00 86 1013.2
20260905053212 67 257 0.0 4.0 0.00 0.00 0.00 86 1013.3
20260905052214 67 202 0.0 2.0 0.00 0.00 0.00 86 1013.4
20260905051003 67 213 1.0 4.0 0.00 0.00 0.00 86 1013.5
20260905050003 67 0 0.0 2.0 0.00 0.00 0.00 86 1013.6
20260905045004 67 224 1.0 4.0 0.00 0.00 0.00 87 1013.6
20260905044004 67 216 0.0 3.0 0.00 0.00 0.00 87 1013.6
20260905043004 67 225 1.0 3.0 0.00 0.00 0.00 87 1013.5
20260905042004 67 233 1.0 3.0 0.00 0.00 0.00 87 1013.4
20260905041004 67 225 2.0 4.0 0.00 0.00 0.00 86 1013.5
20260905040009 67 253 1.0 5.0 0.00 0.00 0.00 86 1013.4
20260905035004 67 277 1.0 5.0 0.00 0.00 0.00 86 1013.4
20260905034005 67 253 1.0 4.0 0.00 0.00 0.00 85 1013.5
20260905033005 67 191 1.0 4.0 0.00 0.00 0.00 84 1013.4
20260905032005 67 217 1.0 4.0 0.00 0.00 0.00 83 1013.4
20260905031005 67 213 1.0 5.0 0.00 0.00 0.00 82 1013.2
20260905030004 67 222 1.0 4.0 0.00 0.00 0.00 81 1013.2
20260905025004 67 218 1.0 5.0 0.00 0.00 0.00 80 1013.4
20260905024004 68 252 1.0 6.0 0.00 0.00 0.00 79 1013.4
20260905023213 68 227 1.0 5.0 0.00 0.00 0.00 78 1013.3
20260905022215 68 243 2.0 5.0 0.00 0.00 0.00 77 1013.3
20260905021004 68 258 2.0 4.0 0.00 0.00 0.00 76 1013.4
20260905020005 68 209 1.0 4.0 0.00 0.00 0.00 75 1013.6
20260905015006 68 231 1.0 4.0 0.00 0.00 0.00 75 1013.6
20260905014213 68 245 1.0 4.0 0.00 0.00 0.00 75 1013.7
20260905013004 68 206 1.0 3.0 0.00 0.00 0.00 74 1013.6
20260905012004 68 207 1.0 3.0 0.00 0.00 0.00 73 1013.6
20260905011005 69 223 1.0 4.0 0.00 0.00 0.00 71 1013.6
20260905010003 69 183 1.0 3.0 0.00 0.00 0.00 70 1013.6
20260905005005 69 217 1.0 2.0 0.00 0.00 0.00 69 1013.8
20260905004003 70 219 1.0 4.0 0.00 0.00 0.00 68 1013.6
20260905003003 70 248 1.0 4.0 0.00 0.00 0.00 66 1013.5
20260905002006 70 220 1.0 3.0 0.00 0.00 0.00 66 1013.5
20260905001004 71 235 0.0 3.0 0.00 0.00 0.00 65 1013.4
20260905000005 71 264 0.0 3.0 0.00 0.00 0.00 65 1013.4
20260904235003 71 300 0.0 3.0 0.00 0.00 0.00 64 1013.3
20260904234004 71 229 0.0 3.0 0.00 0.00 0.00 64 1013.4
20260904233004 71 244 0.0 2.0 0.00 0.00 0.00 63 1013.3
20260904232214 71 238 1.0 3.0 0.00 0.00 0.00 62 1013.2
20260904231216 72 297 0.0 3.0 0.00 0.00 0.00 60 1013.2
20260904230004 72 284 1.0 4.0 0.00 0.00 0.00 58 1013.2
20260904225003 73 340 1.0 5.0 0.00 0.00 0.00 57 1013.1